Simultaneous Nadir Overpasses (SNOs) Predictions

Prediction of SNOs between GOES-17 and METOP-A Satellite Orbit:

Table of predicted SNOs for the next 14.0 days since TLE Epoch: 1/23/2022
Index Date Time (GOES-17) GOES-17 Lat,Lon METOP-A Lat,Lon Distance(km) Time Diff (sec)
1 01/23/2022 17:13:20 -0.02,-137.23 0.01,-137.42 20.56 80
2 01/26/2022 04:57:22 0.02,-137.22 0.72,-134.08 357.77 80
3 01/26/2022 17:15:11 -0.02,-137.23 0.09,-137.72 56.23 80
4 01/29/2022 04:59:13 0.02,-137.20 0.64,-134.39 320.05 80
5 01/29/2022 17:17:02 -0.02,-137.20 0.19,-138.03 94.55 80
6 02/01/2022 05:03:42 -0.01,-137.16 0.53,-134.68 282.19 80
7 02/01/2022 17:16:13 0.02,-137.16 0.26,-138.34 133.29 80
8 02/04/2022 05:05:29 -0.02,-137.12 0.45,-134.97 244.49 80
9 02/04/2022 17:18:05 0.02,-137.12 0.35,-138.64 173.18 80
